BCS5 EBBR-EDDP

Flight info

Callsign BCS5
Flight time 0h 53m
Altitude 33000
Route SOPOK Y863 OGLOR DCT AMASI DCT MASEK DCT FEDZA T957 ESEGU/N0482F310 T957 KOJEC KOJEC1R
Aircraft B77L/H-SDE1E2E3FGHIJ2J3J4J5M1RWXY/LB1D1

Departure

Time 2026-05-07 18:46
Airport Brussels Airport (EBBR)

Arrival

Time 2026-05-07 19:39
Airport Leipzig/Halle Airport (EDDP)
Time Latitude Longitude Altitude Speed Heading
2026-05-07 18:13 50.90228 4.45593 144 ft 0 kts 335°
2026-05-07 18:25 50.90210 4.45606 144 ft 4 kts 340°
2026-05-07 18:25 50.90184 4.45618 144 ft 4 kts 349°
2026-05-07 18:25 50.90157 4.45622 144 ft 4 kts
2026-05-07 18:26 50.90135 4.45610 145 ft 4 kts 54°
2026-05-07 18:26 50.90132 4.45603 145 ft 2 kts 65°
2026-05-07 18:28 50.90139 4.45628 145 ft 8 kts 65°
2026-05-07 18:28 50.90180 4.45760 144 ft 15 kts 66°
2026-05-07 18:29 50.90223 4.45912 142 ft 15 kts 66°
2026-05-07 18:29 50.90265 4.46061 140 ft 15 kts 66°
2026-05-07 18:29 50.90307 4.46211 139 ft 15 kts 66°
2026-05-07 18:29 50.90352 4.46369 137 ft 16 kts 66°
2026-05-07 18:30 50.90363 4.46447 136 ft 1 kts 85°
2026-05-07 18:30 50.90364 4.46466 136 ft 2 kts 86°
2026-05-07 18:30 50.90358 4.46500 135 ft 2 kts 108°
2026-05-07 18:34 50.90349 4.46537 128 ft 9 kts 111°
2026-05-07 18:34 50.90319 4.46636 128 ft 14 kts 116°
2026-05-07 18:35 50.90254 4.46843 127 ft 24 kts 116°
2026-05-07 18:35 50.90181 4.47079 124 ft 24 kts 113°
2026-05-07 18:35 50.90215 4.47316 124 ft 23 kts 65°
2026-05-07 18:35 50.90284 4.47553 121 ft 23 kts 65°
2026-05-07 18:36 50.90352 4.47785 121 ft 23 kts 65°
2026-05-07 18:36 50.90419 4.48020 121 ft 23 kts 66°
2026-05-07 18:36 50.90484 4.48253 122 ft 23 kts 66°
2026-05-07 18:36 50.90554 4.48485 122 ft 23 kts 64°
2026-05-07 18:37 50.90623 4.48716 120 ft 23 kts 64°
2026-05-07 18:37 50.90689 4.48950 121 ft 23 kts 66°
2026-05-07 18:37 50.90754 4.49185 125 ft 23 kts 66°
2026-05-07 18:37 50.90821 4.49415 124 ft 23 kts 65°
2026-05-07 18:38 50.90889 4.49648 123 ft 23 kts 65°
2026-05-07 18:38 50.90928 4.49778 123 ft 5 kts 60°
2026-05-07 18:38 50.90951 4.49819 124 ft 6 kts 43°
2026-05-07 18:38 50.90989 4.49872 120 ft 8 kts 36°
2026-05-07 18:39 50.91011 4.49891 121 ft 0 kts 25°
2026-05-07 18:43 50.91048 4.49918 121 ft 17 kts 25°
2026-05-07 18:44 50.91133 4.49883 122 ft 13 kts 277°
2026-05-07 18:44 50.91129 4.49812 120 ft 4 kts 256°
2026-05-07 18:44 50.91102 4.49758 119 ft 0 kts 244°
2026-05-07 18:45 50.91048 4.49582 121 ft 45 kts 245°
2026-05-07 18:45 50.90807 4.48738 121 ft 120 kts 246°
2026-05-07 18:45 50.90368 4.47232 133 ft 178 kts 245°
2026-05-07 18:45 50.89829 4.45376 667 ft 179 kts 247°
2026-05-07 18:46 50.89387 4.43678 1559 ft 171 kts 247°
2026-05-07 18:46 50.88807 4.41927 2033 ft 186 kts 228°
2026-05-07 18:46 50.87637 4.40928 2311 ft 211 kts 183°
2026-05-07 18:46 50.86170 4.41593 2586 ft 237 kts 140°
2026-05-07 18:47 50.85090 4.43654 3185 ft 249 kts 124°
2026-05-07 18:47 50.84425 4.45152 3728 ft 255 kts 125°
2026-05-07 18:47 50.83365 4.47435 4716 ft 260 kts 126°
2026-05-07 18:47 50.82266 4.49723 5715 ft 264 kts 127°
2026-05-07 18:48 50.81134 4.52029 6540 ft 267 kts 129°
2026-05-07 18:48 50.79967 4.54362 7045 ft 273 kts 129°
2026-05-07 18:48 50.78769 4.56724 7064 ft 277 kts 129°
2026-05-07 18:48 50.77560 4.59085 7078 ft 275 kts 129°
2026-05-07 18:49 50.76357 4.61424 7078 ft 272 kts 130°
2026-05-07 18:49 50.75163 4.63740 7079 ft 272 kts 130°
2026-05-07 18:49 50.73940 4.66026 7101 ft 273 kts 132°
2026-05-07 18:49 50.72682 4.68279 7551 ft 275 kts 130°
2026-05-07 18:50 50.71769 4.70928 8170 ft 279 kts 105°
2026-05-07 18:50 50.71351 4.73949 8829 ft 285 kts 102°
2026-05-07 18:50 50.70941 4.77035 9630 ft 288 kts 103°
2026-05-07 18:50 50.70514 4.80139 10363 ft 293 kts 103°
2026-05-07 18:51 50.70061 4.83345 10704 ft 313 kts 103°
2026-05-07 18:51 50.69559 4.86797 10888 ft 338 kts 104°
2026-05-07 18:51 50.69011 4.90499 11084 ft 363 kts 104°
2026-05-07 18:51 50.68415 4.94461 11626 ft 376 kts 104°
2026-05-07 18:52 50.67799 4.98518 12409 ft 384 kts 104°
2026-05-07 18:52 50.67166 5.02643 13338 ft 389 kts 104°
2026-05-07 18:52 50.66515 5.06862 14240 ft 394 kts 104°
2026-05-07 18:52 50.65867 5.11043 15034 ft 400 kts 104°
2026-05-07 18:53 50.65200 5.15326 15819 ft 405 kts 104°
2026-05-07 18:53 50.64511 5.19730 16614 ft 411 kts 104°
2026-05-07 18:53 50.63832 5.24065 17399 ft 416 kts 104°
2026-05-07 18:53 50.63131 5.28524 18189 ft 421 kts 104°
2026-05-07 18:54 50.62424 5.33016 18904 ft 426 kts 104°
2026-05-07 18:54 50.61704 5.37568 19569 ft 430 kts 104°
2026-05-07 18:54 50.60976 5.42166 20250 ft 434 kts 105°
2026-05-07 18:54 50.60240 5.46796 20924 ft 439 kts 105°
2026-05-07 18:55 50.59493 5.51486 21578 ft 443 kts 105°
2026-05-07 18:55 50.58740 5.56200 22234 ft 448 kts 105°
2026-05-07 18:55 50.57972 5.60987 22869 ft 452 kts 105°
2026-05-07 18:55 50.57197 5.65808 23527 ft 456 kts 105°
2026-05-07 18:56 50.56415 5.70666 24068 ft 461 kts 105°
2026-05-07 18:56 50.55622 5.75569 24625 ft 464 kts 105°
2026-05-07 18:56 50.54821 5.80512 25158 ft 468 kts 105°
2026-05-07 18:56 50.54014 5.85470 25704 ft 471 kts 105°
2026-05-07 18:57 50.53197 5.90479 26234 ft 475 kts 105°
2026-05-07 18:57 50.52374 5.95513 26737 ft 478 kts 105°
2026-05-07 18:57 50.51539 6.00604 27247 ft 482 kts 105°
2026-05-07 18:57 50.50698 6.05712 27756 ft 485 kts 105°
2026-05-07 18:58 50.49848 6.10861 28277 ft 488 kts 105°
2026-05-07 18:58 50.48989 6.16045 28755 ft 491 kts 105°
2026-05-07 18:58 50.48127 6.21240 29173 ft 495 kts 105°
2026-05-07 18:58 50.47250 6.26505 29606 ft 498 kts 105°
2026-05-07 18:59 50.46370 6.31769 30165 ft 498 kts 105°
2026-05-07 18:59 50.45494 6.37003 30708 ft 496 kts 105°
2026-05-07 18:59 50.44614 6.42241 31105 ft 497 kts 105°
2026-05-07 19:00 50.42834 6.52775 31073 ft 497 kts 105°
2026-05-07 19:00 50.41065 6.63189 31070 ft 493 kts 105°
2026-05-07 19:01 50.39290 6.73571 31070 ft 493 kts 106°
2026-05-07 19:01 50.37570 6.83966 31037 ft 494 kts 101°
2026-05-07 19:01 50.37303 6.89269 31045 ft 496 kts 88°
2026-05-07 19:02 50.37701 6.94660 31207 ft 501 kts 78°
2026-05-07 19:02 50.38632 6.99853 31778 ft 496 kts 70°
2026-05-07 19:02 50.39789 7.04964 32331 ft 494 kts 70°
2026-05-07 19:02 50.40942 7.10020 32812 ft 493 kts 70°
2026-05-07 19:03 50.42109 7.15174 33102 ft 496 kts 70°
2026-05-07 19:03 50.44371 7.25341 33068 ft 496 kts 70°
2026-05-07 19:04 50.46591 7.35528 33058 ft 492 kts 71°
2026-05-07 19:04 50.48798 7.45753 33067 ft 490 kts 71°
2026-05-07 19:05 50.50978 7.55904 33067 ft 490 kts 71°
2026-05-07 19:05 50.53147 7.66046 33072 ft 490 kts 71°
2026-05-07 19:06 50.55297 7.76142 33072 ft 490 kts 71°
2026-05-07 19:06 50.58521 7.91376 33078 ft 491 kts 71°
2026-05-07 19:07 50.60678 8.01636 33092 ft 491 kts 71°
2026-05-07 19:07 50.62812 8.11836 33076 ft 490 kts 71°
2026-05-07 19:08 50.64936 8.22039 33071 ft 489 kts 71°
2026-05-07 19:08 50.67043 8.32217 33078 ft 489 kts 71°
2026-05-07 19:09 50.69145 8.42419 33080 ft 488 kts 71°
2026-05-07 19:09 50.71232 8.52601 33088 ft 488 kts 71°
2026-05-07 19:10 50.73309 8.62787 33086 ft 488 kts 71°
2026-05-07 19:10 50.75359 8.72894 33084 ft 488 kts 71°
2026-05-07 19:11 50.77420 8.83105 33092 ft 488 kts 71°
2026-05-07 19:11 50.79474 8.93333 33089 ft 488 kts 71°
2026-05-07 19:12 50.81519 9.03574 33089 ft 488 kts 71°
2026-05-07 19:12 50.83559 9.13843 33098 ft 489 kts 72°
2026-05-07 19:13 50.85587 9.24104 33098 ft 489 kts 72°
2026-05-07 19:13 50.87591 9.34302 33100 ft 489 kts 72°
2026-05-07 19:14 50.89606 9.44606 33099 ft 489 kts 72°
2026-05-07 19:14 50.91611 9.54917 33092 ft 489 kts 72°
2026-05-07 19:15 50.93610 9.65227 33097 ft 489 kts 72°
2026-05-07 19:15 50.95617 9.75514 33089 ft 488 kts 72°
2026-05-07 19:16 50.97608 9.85882 32335 ft 498 kts 72°
2026-05-07 19:16 50.98611 9.91159 31513 ft 498 kts 72°
2026-05-07 19:16 50.99601 9.96397 30634 ft 497 kts 73°
2026-05-07 19:17 51.00584 10.01617 29972 ft 491 kts 73°
2026-05-07 19:17 51.01555 10.06781 29247 ft 484 kts 73°
2026-05-07 19:17 51.02508 10.11864 28648 ft 477 kts 73°
2026-05-07 19:17 51.03452 10.16899 28056 ft 471 kts 73°
2026-05-07 19:18 51.04378 10.21857 27486 ft 466 kts 73°
2026-05-07 19:18 51.05295 10.26765 26905 ft 460 kts 72°
2026-05-07 19:18 51.06556 10.31317 26362 ft 451 kts 55°
2026-05-07 19:18 51.08637 10.34982 26186 ft 447 kts 39°
2026-05-07 19:19 51.11207 10.37723 26114 ft 454 kts 25°
2026-05-07 19:19 51.14072 10.39536 26101 ft 456 kts 18°
2026-05-07 19:19 51.17135 10.41184 26094 ft 456 kts 18°
2026-05-07 19:19 51.20115 10.42872 26093 ft 455 kts 19°
2026-05-07 19:20 51.23080 10.44645 26090 ft 452 kts 21°
2026-05-07 19:20 51.25810 10.47086 25844 ft 451 kts 38°
2026-05-07 19:20 51.27938 10.50718 25427 ft 447 kts 56°
2026-05-07 19:20 51.29308 10.54984 25268 ft 416 kts 69°
2026-05-07 19:21 51.30248 10.59182 25075 ft 387 kts 70°
2026-05-07 19:21 51.31135 10.63096 24786 ft 365 kts 69°
2026-05-07 19:21 51.32004 10.66887 24515 ft 360 kts 69°
2026-05-07 19:21 51.32863 10.70600 24306 ft 354 kts 69°
2026-05-07 19:22 51.33717 10.74270 24031 ft 349 kts 69°
2026-05-07 19:22 51.34563 10.77894 23669 ft 348 kts 69°
2026-05-07 19:22 51.35401 10.81478 23053 ft 339 kts 69°
2026-05-07 19:22 51.36221 10.84984 22182 ft 337 kts 69°
2026-05-07 19:23 51.37044 10.88508 21304 ft 335 kts 69°
2026-05-07 19:23 51.37854 10.91976 20579 ft 329 kts 69°
2026-05-07 19:23 51.38659 10.95430 20318 ft 331 kts 69°
2026-05-07 19:23 51.39453 10.98839 19705 ft 332 kts 69°
2026-05-07 19:24 51.40267 11.02345 18948 ft 330 kts 69°
2026-05-07 19:24 51.41058 11.05755 18256 ft 323 kts 69°
2026-05-07 19:24 51.41815 11.09025 17574 ft 315 kts 69°
2026-05-07 19:24 51.42582 11.12341 16843 ft 308 kts 69°
2026-05-07 19:25 51.43319 11.15534 16069 ft 304 kts 68°
2026-05-07 19:25 51.44046 11.18687 15300 ft 300 kts 68°
2026-05-07 19:25 51.44765 11.21809 14566 ft 297 kts 68°
2026-05-07 19:25 51.45475 11.24893 13851 ft 293 kts 68°
2026-05-07 19:26 51.46171 11.27928 13063 ft 289 kts 68°
2026-05-07 19:26 51.46852 11.30896 12311 ft 285 kts 68°
2026-05-07 19:26 51.47531 11.33864 11572 ft 281 kts 69°
2026-05-07 19:26 51.48201 11.36793 10837 ft 278 kts 69°
2026-05-07 19:27 51.48847 11.39710 10455 ft 280 kts 70°
2026-05-07 19:27 51.49469 11.42648 10224 ft 276 kts 70°
2026-05-07 19:27 51.50084 11.45552 9701 ft 272 kts 70°
2026-05-07 19:27 51.50686 11.48393 9037 ft 265 kts 70°
2026-05-07 19:28 51.51085 11.50270 8544 ft 262 kts 70°
2026-05-07 19:28 51.51672 11.53024 7790 ft 260 kts 70°
2026-05-07 19:28 51.52255 11.55745 7097 ft 257 kts 70°
2026-05-07 19:28 51.52899 11.58746 6354 ft 252 kts 70°
2026-05-07 19:29 51.53467 11.61388 5650 ft 248 kts 70°
2026-05-07 19:29 51.54034 11.64021 5326 ft 254 kts 70°
2026-05-07 19:29 51.54598 11.66634 5158 ft 253 kts 70°
2026-05-07 19:29 51.55153 11.69201 5008 ft 250 kts 70°
2026-05-07 19:30 51.55719 11.71814 4993 ft 247 kts 70°
2026-05-07 19:30 51.56169 11.74472 4974 ft 247 kts 86°
2026-05-07 19:30 51.55910 11.76949 4992 ft 244 kts 114°
2026-05-07 19:30 51.54818 11.79040 4976 ft 236 kts 147°
2026-05-07 19:31 51.53273 11.79825 4994 ft 236 kts 179°
2026-05-07 19:31 51.51687 11.79194 4998 ft 239 kts 211°
2026-05-07 19:31 51.50397 11.77505 4998 ft 240 kts 220°
2026-05-07 19:31 51.48970 11.76214 4821 ft 236 kts 191°
2026-05-07 19:32 51.47470 11.76217 4495 ft 231 kts 166°
2026-05-07 19:32 51.45916 11.76837 4109 ft 231 kts 164°
2026-05-07 19:32 51.44422 11.77473 3720 ft 233 kts 159°
2026-05-07 19:32 51.43097 11.78876 3360 ft 228 kts 128°
2026-05-07 19:33 51.42325 11.81051 3071 ft 223 kts 114°
2026-05-07 19:33 51.41662 11.83277 3011 ft 220 kts 114°
2026-05-07 19:33 51.41107 11.85098 3004 ft 224 kts 115°
2026-05-07 19:33 51.40419 11.87359 3002 ft 228 kts 114°
2026-05-07 19:34 51.39870 11.89692 2974 ft 222 kts 96°
2026-05-07 19:34 51.39858 11.91996 2991 ft 218 kts 86°
2026-05-07 19:34 51.39937 11.94361 3002 ft 207 kts 85°
2026-05-07 19:34 51.40037 11.96615 2978 ft 198 kts 84°
2026-05-07 19:35 51.40137 11.98720 2953 ft 180 kts 84°
2026-05-07 19:35 51.40229 12.00663 2953 ft 172 kts 84°
2026-05-07 19:35 51.40321 12.02601 2681 ft 175 kts 84°
2026-05-07 19:35 51.40410 12.04503 2438 ft 167 kts 84°
2026-05-07 19:36 51.40494 12.06275 2208 ft 156 kts 84°
2026-05-07 19:36 51.40574 12.07982 2027 ft 147 kts 84°
2026-05-07 19:36 51.40648 12.09557 1849 ft 142 kts 83°
2026-05-07 19:36 51.40723 12.11150 1638 ft 146 kts 84°
2026-05-07 19:37 51.40800 12.12789 1436 ft 145 kts 84°
2026-05-07 19:37 51.40874 12.14385 1172 ft 144 kts 84°
2026-05-07 19:37 51.40937 12.15881 960 ft 148 kts 84°
2026-05-07 19:37 51.41016 12.17524 805 ft 147 kts 83°
2026-05-07 19:38 51.41102 12.19105 637 ft 143 kts 84°
2026-05-07 19:38 51.41178 12.20724 457 ft 143 kts 84°
2026-05-07 19:38 51.41242 12.22166 463 ft 113 kts 85°
2026-05-07 19:38 51.41289 12.23225 469 ft 78 kts 85°
2026-05-07 19:39 51.41306 12.23889 477 ft 44 kts 99°
2026-05-07 19:39 51.41234 12.24193 471 ft 22 kts 115°
2026-05-07 19:39 51.41209 12.24280 472 ft 0 kts 116°
2026-05-07 19:40 51.41208 12.24281 472 ft 1 kts 117°
2026-05-07 19:40 51.41202 12.24302 470 ft 2 kts 117°
2026-05-07 19:41 51.41188 12.24346 469 ft 8 kts 116°
2026-05-07 19:41 51.41177 12.24437 473 ft 8 kts 88°
2026-05-07 19:41 51.41176 12.24530 477 ft 9 kts 103°
2026-05-07 19:41 51.41126 12.24585 469 ft 10 kts 163°
2026-05-07 19:42 51.41062 12.24648 473 ft 12 kts 158°
2026-05-07 19:42 51.40990 12.24658 472 ft 10 kts 177°
2026-05-07 19:42 51.40911 12.24665 469 ft 12 kts 175°
2026-05-07 19:42 51.40875 12.24670 470 ft 5 kts 174°
2026-05-07 19:43 51.40832 12.24677 467 ft 7 kts 174°
2026-05-07 19:43 51.40803 12.24735 468 ft 8 kts 94°
2026-05-07 19:43 51.40804 12.24786 468 ft 4 kts 87°
2026-05-07 19:43 51.40806 12.24832 468 ft 3 kts 86°
2026-05-07 19:44 51.40806 12.24834 468 ft 0 kts 86°